DELTA 1 DEB, 10721

Orbit data source: Space-Track

DELTA 1 DEB, 10721 is space debris in SSO originally from a launch on Thu, 29 Jul 1976 UTC launched from the Air Force Western Test Range (AFWTR). Debris objects in space refer to the collection of defunct objects orbiting the Earth. Examples of debris include non-operational satellites, rocket bodies, and fragments generated from explosions, collisions, or faulty payload assembly.

Loading next visibility...
Identifier
10721, 1976-077AS
Orbit
SSO
Country
Flag of USUS
Related business
Manufacturer
Unknown
Mission
Spacecraft
Bus & Motor
Unknown
Mass
Unknown
Launch date (UTC)
1976-07-29 (50 years ago)
Launch vehicle
Unknown
Launch site
Air Force Western Test Range (AFWTR)
Object type
Payload
Rocket body
Debris
Shape & HBR
Unknown shape, 0.1 m
Radar Cross Section
Small (<0.1 m²)

Expand to show TLE details & history
Last TLE update: 9 hours ago

TLE from 9 hours ago
0 DELTA 1 DEB
1 10721U 76077AS  26118.83992444  .00001061  00000-0  59435-2 0  9995
2 10721 101.7878  66.0178 0050237  99.6437 319.4051 12.64944642282072
Epoch: 2026-04-28T20:09Z
TLE epoch observation values (Epoch: 2026-04-28T20:09:29.471Z)
Latitude
56.83528°
Longitude
-111.69164°
Altitude
1,382.319 km
Speed
7.187 km/s
True Right ascension
03h 09m 57s
True Declination
56° 41' 25"
Sunlit
Object was in daylight at epoch
Visualization orbit readout
Latitude
Unknown
Longitude
Unknown
Altitude
Unknown
Speed
Unknown
Apparent Right ascension
Unknown
Apparent Declination
Unknown
Sunlit
N/A
Visualization observer readout
Local Sidereal Time
13:03:55
Azimuth
Unknown
Elevation
Unknown
Doppler factor
Unknown
Orbital elements
Apogee altitude
1,439.207 km
Perigee altitude
1,361.055 km
Semi-major axis
7,778.268 km
Eccentricity
0.00502
Inclination
101.7878°
RAAN
66.0178°
Arg. of periapsis
99.6437°
True anomaly
319.02871°
Mean anomaly
319.4051°
Eccentric anomaly
319.21709°
Mean motion
3.16387 °/min
Orbital period
113.78 mins
BSTAR
0.0059435
Loading maneuver chart data...
Computing Atmospheric mass density...
Loading historical data...
Loading historical data...
Loading historical data...
Loading historical data...
Loading historical data...
Loading historical data...
Loading historical data...

Documentation

Showing up to 5 results
|